Other Public Products
Issued by NWS Grand Forks, ND

Home | Current Version | Previous Version | Graphics & Text | Print | Product List | Glossary On
Versions: 1 2 3 4 5 6 7 8 9 10 11 12 13 14 15 16 17 18 19 20 21 22 23 24 25 26 27 28 29 30 31 32 33 34 35 36 37 38 39 40 41 42 43 44 45 46 47 48 49 50
000
FPUS83 KFGF 032131
OPUFGF
PRAIRIE TO PINES WEATHER ROUNDUP
NATIONAL WEATHER SERVICE EASTERN NORTH DAKOTA/GRAND FORKS ND
400 PM CDT SUN MAY 03 2015

 **SATELLITE DATA USED TO AUGMENT SKY COVER AT AUTOMATED STATIONS**
 *****  WEATHER ACROSS EASTERN NORTH DAKOTA  *****

CITY           SKY/WX    TMP DP  RH WIND       PRES   REMARKS
GRAND FORKS    MOSUNNY   69  25  19 NW16G26   29.90R
GRAND FORKS AF SUNNY     68  25  19 NW17G26   29.91S
GRAND CITY NWS   N/A     70 N/A N/A N13         N/A
BUXTON           N/A     69  24  18 CALM        N/A
DEVILS LAKE    SUNNY     64  25  22 NW13G28   29.94R
FARGO          PTSUNNY   69  24  18 NW13      29.91F
WAHPETON ARPT  CLOUDY    64  23  20 N15       29.93R
$$

 *****  WEATHER ACROSS CENTRAL AND WESTERN NORTH DAKOTA  *****

CITY           SKY/WX    TMP DP  RH WIND       PRES   REMARKS
JAMESTOWN      MOSUNNY   67  19  16 NW21G26   29.95R
BISMARCK       MOSUNNY   65  23  20 NW8G21    30.01R
MINOT          SUNNY     63  24  22 NW17G30   29.98S
MINOT AFB      SUNNY     65  27  23 NW17G26   29.97S
GARRISON         N/A     64  26  23 W17       29.99F
WILLISTON      SUNNY     64  20  18 NW13G25   30.02F
DICKINSON      SUNNY     63  25  23 NW8G21    30.01F
HETTINGER      MOSUNNY   63  26  24 VRB3      30.03S
$$

 *****  OTHER OBSERVATIONS NORTHEAST NORTH DAKOTA  *****

CITY           SKY/WX    TMP DP  RH WIND       PRES   REMARKS
WALHALLA       FAIR      64  27  24 NW22G28   29.90S
LANGDON        FAIR      64  27  24 NW16G26   29.93R
CAVALIER       FAIR      66  27  22 NW20G25   29.90S
GRAFTON        FAIR      66  28  24 NW18G28   29.91R
CANDO          FAIR      63  25  23 NW13G23   29.95R
FORT TOTTEN      N/A     64  28  25 NW9       29.95S
ROLLA          NOT AVBL
RUGBY          NOT AVBL
 ***** THE ABOVE OBSERVATIONS ARE NON NWS ARE NOT QUALITY
        CONTROLLED AND MAY MIS-REPORT RAIN FOR SNOW...
$$

 *****  OTHER OBSERVATIONS SOUTHEAST NORTH DAKOTA *****

CITY           SKY/WX    TMP DP  RH WIND       PRES   REMARKS
COOPERSTOWN    NOT AVBL
VALLEY CITY    FAIR      66  23  19 N14G25    29.94S
OAKES            N/A     66  27  22 N13       29.95S
GWINNER        PTCLDY    68  32  26 N13G23    29.95F
SHEYENNE NWR     N/A     68  29  23 N9        29.95
BUFFALO        NOT AVBL
WYNDMERE       NOT AVBL
 ***** THE ABOVE OBSERVATIONS ARE NON NWS ARE NOT QUALITY
       CONTROLLED AND MAY MIS-REPORT RAIN FOR SNOW...
$$

  *****  WEATHER ACROSS NORTHERN MINNESOTA  *****

CITY           SKY/WX    TMP DP  RH WIND       PRES   REMARKS
FLAG ISLAND    SUNNY     61  34  36 W25G37    29.83R
WARROAD        SUNNY     64  36  34 NW20G26   29.86R
ROSEAU         SUNNY     64  28  25 W18G28    29.86R
HALLOCK        MOSUNNY   66  21  18 NW16G39   29.88S
THF RVR FALLS  SUNNY     66  27  22 W13G22    29.90R
HALSTAD          N/A     70  21  15 NW17        N/A
FOSSTON        NOT AVBL
BAUDETTE       MOSUNNY   67  27  22 NW20G26   29.84S
WASKISH        PTSUNNY   64  36  34 CALM      29.87S
CROOKSTON      SUNNY     68  27  21 N16G23    29.90S
$$
  *****  WEATHER ACROSS CENTRAL AND WEST MINNESOTA  *****

CITY           SKY/WX    TMP DP  RH WIND       PRES   REMARKS
BEMIDJI        CLOUDY    64  24  22 NW10      29.89S
PARK RAPIDS    CLOUDY    66  30  26 NW10      29.90S
WADENA         CLOUDY    64  37  36 N12       29.87F
DETROIT LAKES  CLOUDY    64  25  22 N13       29.92F
MOORHEAD       PTSUNNY   68  27  21 NW13      29.92F
FERGUS FALLS   CLOUDY    64  30  27 N10       29.90F
ELBOW LAKE     FAIR      67  37  32 NW15G21   29.89F
MORRIS MN      CLOUDY    73  36  25 N20G28    29.88R
STAPLES        CLOUDY    66  34  30 N8        29.89S
WHEATON        CLOUDY    66  34  30 NW20      29.92S
$$
  *****  WEATHER ELSEWHERE ACROSS MINNESOTA  *****

CITY           SKY/WX    TMP DP  RH WIND       PRES   REMARKS
DULUTH         CLOUDY    71  33  24 NW17G24   29.82R
INTRNTL FALLS  CLOUDY    65  34  31 NW13      29.84S
ELY            CLOUDY    64  30  27 NW8G18    29.82F
CLOQUET        CLOUDY    70  27  19 NW13G24   29.84R
BRAINERD       LGT RAIN  64  41  42 NW16      29.89R
HIBBING        CLOUDY    66  30  26 NW13      29.85R
ALEXANDRIA     CLOUDY    66  39  37 N13       29.91S
SAINT CLOUD    MOSUNNY   74  42  31 N13G25    29.82R
MINNEAPOLIS    MOSUNNY   81  52  36 NE5       29.75S
$$

  *****  WEATHER ACROSS SOUTH DAKOTA  *****

CITY           SKY/WX    TMP DP  RH WIND       PRES   REMARKS
SIOUX FALLS    PTSUNNY   73  45  36 N29G38    29.83R
BROOKINGS      CLOUDY    64  43  45 N15G28    29.89F
WATERTOWN      PTSUNNY   72  34  24 NE15G25   29.94R
HURON          MOSUNNY   73  35  25 NE18G31   29.88F
SISSETON         N/A     69  33  26 NE18G29   29.92R
ABERDEEN       CLOUDY    69  30  23 N21       29.96R
MITCHELL       CLOUDY    72  38  29 NE29G35   29.84F
PIERRE         MOSUNNY   74  34  23 N20G26    29.93S
MOBRIDGE       PTSUNNY   67  29  24 N15       29.97F
RAPID CITY     SUNNY     68  36  30 N13       30.00S
$$

  *****  SOME WEATHER IN NEARBY STATES *****

CITY           SKY/WX    TMP DP  RH WIND       PRES   REMARKS
GLASGOW MT     MOSUNNY   61  22  22 NW8       30.04F
GREAT FALLS MT SUNNY     60  28  29 E5        29.97F
CHEYENNE WY    TSTM      52  41  66 S9G41     30.08R
SCOTTSBLUFF NE MOSUNNY   72  39  30 NE16      29.95F
OMAHA NE       PTSUNNY   80  60  50 SE8       29.74R
DES MOINES IA  MOSUNNY   84  58  40 S15G23    29.78F
DAVENPORT IA   MOSUNNY   74  60  61 E6        29.87F
CHICAGO IL     CLOUDY    76  47  35 S8        29.90F
EAU CLAIRE WI  SUNNY     80  52  37 S6        29.77F
LA CROSSE WI   SUNNY     84  46  26 S10       29.77F
$$

  *****  SOME NATIONAL WEATHER *****

CITY           SKY/WX    TMP DP  RH WIND       PRES   REMARKS
LA GUARDIA NY  MOSUNNY   71  43  36 S17       30.05S
RALEIGH NC     PTSUNNY   78  47  33 S5        30.15F
ATLANTA GA     PTSUNNY   77  45  32 SE8       30.14F
NEW ORLEANS LA PTSUNNY   81  55  40 SE13G18   30.08F
OKLAHOMA CITY  CLOUDY    81  58  45 S20G25    29.92F
ALBUQUERQUE NM PTSUNNY   75  31  19 W21G28    29.99F
SALT LAKE CITY CLOUDY    71  37  28 E10       29.89R
LOS ANGELES CA SUNNY     64  52  64 W18       29.93F
BOISE ID       SUNNY     77  27  15 NW12      29.84F
SEATTLE WA     MOSUNNY   64  39  40 NW9       29.97F
$$

*** WEATHER ACROSS MANITOBA...SASKATCHEWAN AND ONTARIO ***
                ***ONTARIO***

CITY           SKY/WX    TMP DP  RH WIND       PRES   REMARKS
GERALDTON      PTSUNNY   70  37  30 W16G25    29.68R
THUNDER BAY    CLOUDY    77  30  18 W20       29.71R
SIOUX LOOKOUT  MOSUNNY   59  36  41 NW18G29   29.78R
TORONTO        PTSUNNY   75  43  31 SE10      29.98F
BIG TROUT LK   CLOUDY    39  34  81 NW9       29.78R
PICKLE LAKE    LGT RAIN  54  34  47 NW10      29.74R
DRYDEN         PTSUNNY   61  34  36 NW13G25   29.78R
KENORA         PTSUNNY   61  32  33 W16G28    29.82R
$$
                *** MANITOBA***

CITY           SKY/WX    TMP DP  RH WIND       PRES   REMARKS
BRANDON        PTSUNNY   63  32  31 NW18G26   29.94R
DAUPHIN        MOSUNNY   59  34  38 N18G25    29.93R
ISLAND LAKE    PTSUNNY   43  30  61 N8        29.84R
PILOT MOUND      N/A     59  27  29 NW17G25     N/A
THE PAS        MOSUNNY   50  32  50 NW3       29.93S
THOMPSON       PTSUNNY   37  25  60 N10       29.90S
WINNIPEG       PTSUNNY   59  37  44 NW23G31   29.92R
LYNN LAKE      LGT RAIN  37  32  81 NW10G20   29.89R
CHURCHILL      CLOUDY    28  23  80 N12       29.88S WCI  18
GILLAM         CLOUDY    30  25  80 NW8       29.90R WCI  23
$$
                ***SASKATCHEWAN***

CITY           SKY/WX    TMP DP  RH WIND       PRES   REMARKS
ESTEVAN        PTSUNNY   57  27  30 NW17      30.02S
KINDERSLEY     PTSUNNY   54  25  32 W14G21    30.05R
LLOYDMINSTER   PTSUNNY   50  30  46 SW12      30.03S
PRINCE ALBERT  MOSUNNY   54  30  40 NW16G25   29.99S
REGINA         PTSUNNY   59  27  29 NW12G21   30.03S


USA.gov is the U.S. government's official web portal to all federal, state and local government web resources and services.